DW4879 Weather Reports


Display with metric or nautical units.
time (UTC)temp
F
wind
direction
speed
MPH
gust
MPH
rain 1hr
in
rain 24hr
in
rain mn
in
humidity
%
barometer
mb
20260906014555 80 288 2.0 4.0 0.00 0.00 0.00 25 1021.8
20260906014053 81 286 1.0 4.0 0.00 0.00 0.00 25 1021.8
20260906013545 81 286 2.0 4.0 0.00 0.00 0.00 25 1021.9
20260906013053 81 311 1.0 7.0 0.00 0.00 0.00 25 1021.9
20260906012601 81 288 2.0 6.0 0.00 0.00 0.00 25 1021.9
20260906012050 82 295 3.0 6.0 0.00 0.00 0.00 25 1021.9
20260906011559 82 304 4.0 6.0 0.00 0.00 0.00 25 1021.9
20260906011003 82 321 3.0 9.0 0.00 0.00 0.00 25 1021.9
20260906010511 82 291 5.0 9.0 0.00 0.00 0.00 25 1021.9
20260906010108 82 296 4.0 8.0 0.00 0.00 0.00 25 1022.0
20260906005509 82 296 2.0 4.0 0.00 0.01 0.00 26 1021.9
20260906005015 82 271 2.0 4.0 0.00 0.01 0.00 26 1022.0
20260906004524 82 295 1.0 4.0 0.00 0.01 0.00 27 1022.0
20260906004031 82 212 1.0 4.0 0.00 0.01 0.00 27 1021.9
20260906003539 83 232 1.0 4.0 0.00 0.01 0.00 26 1022.0
20260906003047 83 224 1.0 4.0 0.00 0.01 0.00 26 1022.0
20260906002555 83 231 2.0 5.0 0.00 0.01 0.00 26 1021.9
20260906002047 83 273 1.0 7.0 0.00 0.01 0.00 26 1022.0
20260906001553 83 290 4.0 7.0 0.00 0.01 0.00 26 1022.0
20260906001102 84 229 1.0 7.0 0.00 0.01 0.00 26 1022.0
20260906000505 84 273 2.0 9.0 0.00 0.01 0.00 25 1022.0
20260906000101 84 195 3.0 9.0 0.00 0.01 0.00 25 1022.0
20260905235503 84 201 5.0 8.0 0.00 0.01 0.00 25 1022.0
20260905235100 84 233 1.0 10.0 0.00 0.01 0.00 26 1022.0
20260905234503 84 330 4.0 10.0 0.00 0.01 0.00 26 1022.1
20260905234103 84 260 2.0 8.0 0.00 0.01 0.00 26 1022.1
20260905233502 84 218 2.0 9.0 0.00 0.01 0.00 25 1022.1
20260905233015 85 273 5.0 9.0 0.00 0.01 0.00 24 1022.1
20260905232521 85 267 2.0 8.0 0.00 0.01 0.00 24 1022.0
20260905232021 86 311 4.0 11.0 0.00 0.01 0.00 24 1022.0
20260905231535 85 200 4.0 11.0 0.00 0.01 0.00 24 1022.1
20260905231036 85 233 4.0 12.0 0.00 0.01 0.00 25 1022.1
20260905230544 85 305 6.0 13.0 0.00 0.01 0.00 25 1022.2
20260905230117 86 306 4.0 12.0 0.00 0.01 0.00 24 1022.1
20260905225545 86 273 4.0 12.0 0.00 0.01 0.00 25 1022.1
20260905225050 86 294 4.0 11.0 0.00 0.01 0.00 25 1022.1
20260905224559 86 319 6.0 11.0 0.00 0.01 0.00 24 1022.2
20260905224001 86 286 1.0 14.0 0.00 0.01 0.00 25 1022.2
20260905223556 86 279 6.0 14.0 0.00 0.01 0.00 25 1022.2
20260905223107 87 111 3.0 8.0 0.00 0.01 0.00 25 1022.2
20260905222557 87 235 2.0 10.0 0.00 0.01 0.00 25 1022.3
20260905222047 86 188 3.0 12.0 0.00 0.01 0.00 25 1022.3
20260905221600 86 247 6.0 12.0 0.00 0.01 0.00 26 1022.4
20260905221104 86 223 5.0 11.0 0.00 0.01 0.00 26 1022.4
20260905220505 86 204 4.0 14.0 0.00 0.01 0.00 26 1022.5
20260905220055 86 302 2.0 11.0 0.00 0.01 0.00 25 1022.5
20260905215603 87 258 6.0 11.0 0.00 0.01 0.00 24 1022.7
20260905215059 87 251 3.0 11.0 0.00 0.01 0.00 25 1022.6
20260905214604 86 223 4.0 15.0 0.00 0.01 0.00 25 1022.8
20260905214006 86 285 10.0 15.0 0.00 0.01 0.00 25 1022.7
20260905213601 86 315 10.0 15.0 0.00 0.01 0.00 25 1022.8
20260905213003 87 214 8.0 15.0 0.00 0.01 0.00 25 1022.9
20260905212559 87 280 5.0 15.0 0.00 0.01 0.00 25 1023.0
20260905212002 86 132 6.0 15.0 0.00 0.01 0.00 26 1022.9
20260905211604 86 288 1.0 9.0 0.00 0.01 0.00 26 1023.0
20260905211049 87 175 3.0 14.0 0.00 0.01 0.00 26 1023.0
20260905210556 86 212 4.0 14.0 0.00 0.01 0.00 26 1023.1
20260905210105 85 294 5.0 13.0 0.00 0.01 0.00 26 1023.1
20260905205507 85 304 7.0 14.0 0.00 0.01 0.00 26 1023.3
20260905205102 86 256 8.0 14.0 0.00 0.01 0.00 27 1023.3
20260905204505 87 257 4.0 11.0 0.00 0.01 0.00 25 1023.3
20260905204103 87 200 2.0 12.0 0.00 0.01 0.00 25 1023.4
20260905203553 87 225 4.0 12.0 0.00 0.01 0.00 25 1023.6
20260905203104 87 206 6.0 12.0 0.00 0.01 0.00 25 1023.5
20260905202503 87 250 5.0 25.0 0.00 0.01 0.00 26 1023.6
20260905202008 85 202 3.0 25.0 0.00 0.01 0.00 27 1023.6
20260905201517 85 243 7.0 21.0 0.00 0.01 0.00 27 1023.6
20260905201024 85 336 3.0 12.0 0.00 0.01 0.00 27 1023.7
20260905200532 85 261 6.0 12.0 0.00 0.01 0.00 27 1023.8
20260905200041 85 250 2.0 10.0 0.00 0.01 0.00 27 1023.8
20260905195549 85 290 7.0 10.0 0.00 0.01 0.00 27 1023.8
20260905195056 86 190 4.0 10.0 0.00 0.01 0.00 27 1023.8
20260905194604 85 184 4.0 9.0 0.00 0.01 0.00 28 1023.8
20260905194008 85 260 3.0 12.0 0.00 0.01 0.00 28 1023.9
20260905193603 85 215 3.0 12.0 0.00 0.01 0.00 28 1024.0
20260905193006 85 194 6.0 13.0 0.00 0.01 0.00 28 1023.9
20260905192601 84 257 4.0 12.0 0.00 0.01 0.00 29 1024.0
20260905192004 83 287 6.0 12.0 0.00 0.01 0.00 30 1024.0
20260905191602 84 265 3.0 12.0 0.00 0.01 0.00 29 1024.1
20260905191053 84 196 4.0 10.0 0.00 0.01 0.00 29 1024.1
20260905190601 84 290 3.0 11.0 0.00 0.01 0.00 29 1024.1
20260905190004 84 265 5.0 11.0 0.00 0.01 0.00 30 1024.1
20260905185511 83 220 3.0 10.0 0.00 0.01 0.00 30 1024.2
20260905185021 82 248 3.0 13.0 0.00 0.01 0.00 31 1024.3
20260905184527 82 281 6.0 13.0 0.00 0.01 0.00 31 1024.3
20260905184035 83 290 4.0 8.0 0.00 0.01 0.00 31 1024.4
20260905183543 83 254 3.0 11.0 0.00 0.01 0.00 32 1024.4
20260905183034 82 209 5.0 11.0 0.00 0.01 0.00 32 1024.5
20260905182541 81 321 4.0 9.0 0.00 0.01 0.00 33 1024.5
20260905182046 81 339 3.0 12.0 0.00 0.01 0.00 34 1024.6
20260905181554 81 285 7.0 12.0 0.00 0.01 0.00 33 1024.7
20260905181104 81 317 7.0 10.0 0.00 0.01 0.00 34 1024.8
20260905180505 81 273 3.0 12.0 0.00 0.01 0.00 34 1024.9
20260905180059 80 275 4.0 12.0 0.00 0.01 0.00 35 1024.9
20260905175502 80 306 4.0 10.0 0.00 0.01 0.00 34 1025.0
20260905175100 80 222 3.0 10.0 0.00 0.01 0.00 36 1025.0
20260905174550 80 295 4.0 9.0 0.00 0.01 0.00 35 1025.1
20260905174058 79 296 3.0 11.0 0.00 0.01 0.00 37 1025.1
20260905173552 79 331 5.0 10.0 0.00 0.01 0.00 37 1025.2
20260905173043 79 298 4.0 10.0 0.00 0.01 0.00 37 1025.3
20260905172549 78 226 3.0 12.0 0.00 0.01 0.00 38 1025.3
20260905172057 78 296 9.0 12.0 0.00 0.01 0.00 38 1025.2
20260905171608 79 269 5.0 12.0 0.00 0.01 0.00 38 1025.3
20260905171056 79 184 3.0 8.0 0.00 0.01 0.00 39 1025.4
20260905170603 78 229 3.0 11.0 0.00 0.01 0.00 39 1025.3
20260905170055 77 290 7.0 11.0 0.00 0.01 0.00 39 1025.2
20260905165546 77 274 3.0 10.0 0.00 0.01 0.00 40 1025.3
20260905165053 77 212 3.0 10.0 0.00 0.01 0.00 40 1025.3
20260905164602 77 258 7.0 10.0 0.00 0.01 0.00 39 1025.2
20260905164009 77 306 2.0 8.0 0.00 0.01 0.00 41 1025.2
20260905163559 77 258 3.0 8.0 0.00 0.01 0.00 41 1025.2
20260905163003 77 236 3.0 6.0 0.00 0.01 0.00 42 1025.3
20260905162510 76 260 3.0 7.0 0.00 0.01 0.00 41 1025.3
20260905162018 76 316 1.0 5.0 0.00 0.01 0.00 43 1025.3
20260905161525 75 265 2.0 5.0 0.00 0.01 0.00 43 1025.3
20260905161033 75 168 0.0 6.0 0.00 0.01 0.00 45 1025.2
20260905160540 74 153 0.0 4.0 0.00 0.01 0.00 45 1025.2
20260905160049 74 174 1.0 4.0 0.00 0.01 0.00 47 1025.2
20260905155538 73 205 2.0 6.0 0.00 0.01 0.00 48 1025.1
20260905155045 73 162 4.0 6.0 0.00 0.01 0.00 49 1025.1
20260905154604 72 113 2.0 6.0 0.00 0.01 0.00 50 1025.1
20260905154102 72 120 3.0 6.0 0.00 0.01 0.00 50 1025.1
20260905153555 72 161 2.0 4.0 0.00 0.01 0.00 50 1025.1
20260905153105 72 143 2.0 6.0 0.00 0.01 0.00 50 1025.1
20260905152555 71 102 3.0 7.0 0.00 0.01 0.00 50 1025.1
20260905152045 71 138 2.0 6.0 0.00 0.01 0.00 51 1025.2
20260905151553 71 121 3.0 6.0 0.00 0.01 0.00 51 1025.0
20260905151101 70 112 3.0 7.0 0.00 0.01 0.00 51 1025.0
20260905150504 70 115 2.0 6.0 0.00 0.01 0.00 52 1024.9
20260905150113 69 118 3.0 6.0 0.00 0.01 0.00 53 1025.1
20260905145503 69 85 4.0 6.0 0.00 0.01 0.00 53 1024.9
20260905145059 68 102 2.0 7.0 0.00 0.01 0.00 54 1024.9
20260905144502 68 82 4.0 7.0 0.00 0.01 0.00 54 1024.8
20260905144101 67 97 2.0 7.0 0.00 0.01 0.00 54 1024.8
20260905143550 67 109 3.0 7.0 0.00 0.01 0.00 56 1024.8
20260905143058 66 155 3.0 6.0 0.00 0.01 0.00 55 1024.8
20260905142501 66 116 3.0 6.0 0.00 0.01 0.00 56 1024.8
20260905142009 65 127 3.0 6.0 0.00 0.01 0.00 56 1024.8
20260905141607 65 118 3.0 6.0 0.00 0.01 0.00 56 1024.8
20260905141011 64 82 2.0 4.0 0.00 0.01 0.00 57 1024.9
20260905140519 63 111 3.0 6.0 0.00 0.01 0.00 57 1024.8
20260905135502 63 121 2.0 6.0 0.00 0.01 0.00 58 1024.7
20260905135012 62 123 3.0 6.0 0.00 0.01 0.00 59 1024.6
20260905134605 62 117 3.0 6.0 0.00 0.01 0.00 59 1024.5
20260905134008 61 130 1.0 6.0 0.00 0.01 0.00 61 1024.4
20260905133604 61 114 1.0 6.0 0.00 0.01 0.00 61 1024.3
20260905133007 60 113 3.0 6.0 0.00 0.01 0.00 62 1024.3
20260905132516 60 89 2.0 6.0 0.00 0.01 0.00 62 1024.2
20260905132021 60 109 3.0 6.0 0.00 0.01 0.00 63 1024.1
20260905131533 59 119 3.0 6.0 0.00 0.01 0.00 65 1024.1
20260905131037 59 113 3.0 6.0 0.00 0.01 0.00 65 1024.1
20260905130545 59 96 3.0 5.0 0.00 0.01 0.00 65 1024.0
20260905130036 59 101 3.0 6.0 0.00 0.01 0.00 65 1024.0
20260905125543 59 92 2.0 6.0 0.00 0.01 0.00 66 1023.9
20260905125051 59 101 2.0 6.0 0.00 0.01 0.00 67 1023.9
20260905124602 59 107 1.0 3.0 0.00 0.01 0.00 67 1023.9
20260905124049 59 107 1.0 3.0 0.00 0.01 0.00 67 1023.9
20260905123557 60 105 1.0 4.0 0.00 0.01 0.00 67 1023.8
20260905123051 60 109 2.0 4.0 0.00 0.01 0.00 68 1023.8
20260905122539 60 105 3.0 4.0 0.00 0.01 0.00 68 1023.7
20260905122047 60 102 2.0 3.0 0.00 0.01 0.00 67 1023.7
20260905121537 61 102 2.0 3.0 0.00 0.01 0.00 67 1023.6
20260905121047 61 102 2.0 3.0 0.00 0.01 0.00 67 1023.6
20260905120554 61 102 2.0 3.0 0.00 0.01 0.00 67 1023.6
20260905115554 62 102 2.0 3.0 0.00 0.01 0.00 65 1023.6
20260905115059 62 102 2.0 2.0 0.00 0.01 0.00 65 1023.5
20260905114502 62 64 1.0 2.0 0.00 0.01 0.00 64 1023.6
20260905114010 63 64 0.0 2.0 0.00 0.01 0.00 64 1023.6
20260905113502 63 64 0.0 2.0 0.00 0.01 0.00 64 1023.6
20260905113012 63 64 0.0 2.0 0.00 0.01 0.00 63 1023.5
20260905112504 63 64 0.0 3.0 0.00 0.01 0.00 64 1023.5
20260905112101 63 64 0.0 3.0 0.00 0.01 0.00 64 1023.5
20260905111501 63 64 1.0 4.0 0.00 0.01 0.00 64 1023.4
20260905111057 63 64 2.0 4.0 0.00 0.01 0.00 64 1023.4
20260905110543 63 75 1.0 4.0 0.00 0.01 0.00 64 1023.5
20260905110051 63 67 2.0 4.0 0.00 0.01 0.00 64 1023.3
20260905105600 63 69 2.0 4.0 0.00 0.01 0.00 64 1023.4
20260905105004 63 61 2.0 5.0 0.00 0.01 0.00 64 1023.4
20260905104559 63 63 2.0 5.0 0.00 0.01 0.00 64 1023.3
20260905104002 63 78 2.0 7.0 0.00 0.01 0.00 64 1023.3
20260905103557 63 82 3.0 7.0 0.00 0.01 0.00 64 1023.2
20260905103105 63 41 3.0 8.0 0.00 0.01 0.00 64 1023.3
20260905102558 63 79 4.0 8.0 0.00 0.01 0.00 64 1023.2
20260905102048 63 96 3.0 8.0 0.00 0.01 0.00 64 1023.2
20260905101556 63 94 3.0 6.0 0.00 0.01 0.00 64 1023.2
20260905101106 63 76 4.0 6.0 0.00 0.01 0.00 64 1023.1
20260905100506 64 79 3.0 6.0 0.00 0.01 0.00 64 1023.1
20260905100005 64 96 3.0 6.0 0.00 0.01 0.00 63 1023.1
20260905095600 64 96 2.0 7.0 0.00 0.01 0.00 63 1023.1
20260905095003 64 105 4.0 7.0 0.00 0.01 0.00 64 1023.1
20260905094601 63 109 4.0 6.0 0.00 0.01 0.00 64 1023.1
20260905094004 64 119 3.0 6.0 0.00 0.01 0.00 64 1023.0
20260905093512 64 126 2.0 4.0 0.00 0.01 0.00 63 1023.0
20260905093003 64 118 2.0 5.0 0.00 0.01 0.00 63 1022.9
20260905092509 64 94 3.0 5.0 0.00 0.01 0.00 63 1022.8
20260905092015 64 92 2.0 5.0 0.00 0.01 0.00 63 1022.8
20260905091524 64 91 3.0 6.0 0.00 0.01 0.00 63 1022.7
20260905091031 64 93 3.0 5.0 0.00 0.01 0.00 63 1022.8
20260905090539 65 82 2.0 4.0 0.00 0.01 0.00 63 1022.8
20260905090047 65 85 2.0 4.0 0.00 0.01 0.00 63 1022.8
20260905085553 65 125 2.0 4.0 0.00 0.01 0.00 63 1022.8
20260905085101 65 115 2.0 6.0 0.00 0.01 0.00 63 1022.8
20260905084503 65 96 3.0 6.0 0.00 0.01 0.00 63 1022.9
20260905084101 65 100 2.0 4.0 0.00 0.01 0.00 63 1022.9
20260905083500 65 120 1.0 4.0 0.00 0.01 0.00 63 1022.8
20260905083057 65 120 2.0 4.0 0.00 0.01 0.00 63 1022.7
20260905082604 65 111 2.0 4.0 0.00 0.01 0.00 63 1022.8
20260905082057 65 111 2.0 4.0 0.00 0.01 0.00 63 1022.7
20260905081548 65 115 2.0 4.0 0.00 0.01 0.00 63 1022.8
20260905081056 65 115 2.0 3.0 0.00 0.01 0.00 63 1022.8
20260905080547 66 109 2.0 3.0 0.00 0.01 0.00 62 1022.8
20260905080055 66 113 2.0 4.0 0.00 0.01 0.00 62 1022.7
20260905075604 66 109 3.0 4.0 0.00 0.01 0.00 62 1022.8
20260905075005 66 127 2.0 4.0 0.00 0.01 0.00 62 1022.8
20260905074601 66 126 2.0 4.0 0.00 0.01 0.00 62 1022.8
20260905074005 66 141 3.0 4.0 0.00 0.01 0.00 61 1022.8
20260905073602 66 137 2.0 3.0 0.00 0.01 0.00 61 1022.8
20260905073005 67 126 2.0 4.0 0.00 0.01 0.00 61 1022.8
20260905072606 67 123 3.0 4.0 0.00 0.01 0.00 61 1022.9
20260905072053 67 126 2.0 3.0 0.00 0.01 0.00 60 1022.8
20260905071607 67 130 2.0 3.0 0.00 0.01 0.00 60 1022.8
20260905071054 67 130 2.0 3.0 0.00 0.01 0.00 60 1022.8
20260905070545 67 130 1.0 7.0 0.00 0.01 0.00 59 1022.8
20260905070053 67 130 2.0 7.0 0.00 0.01 0.00 59 1022.9
20260905065543 68 51 0.0 2.0 0.00 0.01 0.00 57 1022.8
20260905065051 68 51 0.0 0.0 0.00 0.01 0.00 57 1022.8
20260905064600 68 51 0.0 2.0 0.00 0.01 0.00 57 1022.6
20260905064004 68 51 0.0 2.0 0.00 0.01 0.00 58 1022.6
20260905063557 68 51 0.0 2.0 0.00 0.01 0.00 58 1022.6
20260905063002 69 51 1.0 3.0 0.00 0.01 0.00 59 1022.6
20260905062557 69 49 1.0 3.0 0.00 0.01 0.00 59 1022.6
20260905062046 69 22 1.0 4.0 0.00 0.01 0.00 59 1022.6
20260905061606 70 355 2.0 6.0 0.00 0.01 0.00 58 1022.6
20260905061102 70 338 3.0 5.0 0.00 0.01 0.00 57 1022.6
20260905060504 70 333 2.0 6.0 0.00 0.01 0.00 56 1022.6
20260905060003 71 308 4.0 9.0 0.00 0.01 0.00 55 1022.7
20260905055556 71 295 5.0 9.0 0.00 0.01 0.01 54 1022.7
20260905055105 71 311 3.0 6.0 0.00 0.01 0.01 55 1022.8
20260905054558 71 299 3.0 7.0 0.00 0.01 0.01 54 1022.8
20260905054002 71 286 4.0 10.0 0.00 0.01 0.01 54 1022.9
20260905053559 71 287 5.0 10.0 0.00 0.01 0.01 54 1022.8
20260905053002 70 247 4.0 8.0 0.00 0.01 0.01 55 1022.7
20260905052509 70 277 3.0 11.0 0.00 0.01 0.01 55 1022.7
20260905052106 70 284 6.0 11.0 0.00 0.01 0.01 55 1022.8
20260905051507 71 304 3.0 9.0 0.00 0.01 0.01 55 1022.8
20260905051106 71 291 5.0 9.0 0.00 0.01 0.01 54 1022.9
20260905050508 71 250 3.0 9.0 0.00 0.01 0.01 54 1022.8
20260905050104 71 190 3.0 8.0 0.00 0.01 0.01 54 1022.6
20260905045556 71 156 5.0 11.0 0.00 0.01 0.01 54 1022.5
20260905045102 71 162 7.0 12.0 0.00 0.01 0.01 54 1022.5
20260905044509 71 153 8.0 12.0 0.00 0.01 0.01 53 1022.4
20260905044014 72 163 8.0 12.0 0.00 0.01 0.01 52 1022.5
20260905043503 72 148 6.0 12.0 0.00 0.01 0.01 51 1022.5
20260905043008 73 150 7.0 12.0 0.00 0.01 0.01 49 1022.4
20260905042605 73 153 6.0 11.0 0.00 0.01 0.01 47 1022.3
20260905042057 73 160 3.0 4.0 0.00 0.01 0.01 44 1022.1
20260905041613 73 155 2.0 3.0 0.00 0.01 0.01 44 1022.0
20260905041053 73 207 1.0 2.0 0.00 0.01 0.01 44 1022.0
20260905040603 73 207 1.0 2.0 0.00 0.01 0.01 44 1021.9
20260905040058 74 207 1.0 2.0 0.00 0.01 0.01 44 1022.1
20260905035544 74 207 0.0 2.0 0.00 0.01 0.01 44 1022.1
20260905035051 74 207 0.0 2.0 0.00 0.01 0.01 44 1022.0
20260905034603 74 207 0.0 2.0 0.00 0.01 0.01 46 1022.1
20260905034003 74 207 0.0 2.0 0.00 0.01 0.01 44 1022.0
20260905033600 74 207 1.0 2.0 0.00 0.01 0.01 44 1022.0
20260905033003 74 207 1.0 2.0 0.00 0.01 0.01 44 1022.0
20260905032601 74 207 1.0 2.0 0.00 0.01 0.01 44 1021.9
20260905032054 74 207 2.0 3.0 0.00 0.01 0.01 44 1022.0
20260905031559 74 194 1.0 3.0 0.00 0.01 0.01 45 1021.8
20260905031052 74 178 1.0 3.0 0.00 0.01 0.01 45 1021.9
20260905030600 74 202 1.0 2.0 0.00 0.01 0.01 45 1021.8
20260905025543 74 202 1.0 2.0 0.00 0.01 0.01 45 1021.7
20260905025050 74 202 1.0 2.0 0.00 0.01 0.01 45 1021.6
20260905024543 74 202 0.0 1.0 0.00 0.01 0.01 45 1021.5
20260905024051 74 202 0.0 2.0 0.00 0.01 0.01 44 1021.5
20260905023547 74 202 0.0 2.0 0.00 0.01 0.01 44 1021.3
20260905023035 75 202 0.0 2.0 0.00 0.01 0.01 44 1021.3
20260905022541 75 202 0.0 2.0 0.00 0.01 0.01 44 1021.1
20260905022049 75 202 0.0 2.0 0.00 0.01 0.01 44 1021.0
20260905021558 75 202 0.0 1.0 0.00 0.01 0.01 45 1021.0
20260905021002 76 202 0.0 1.0 0.00 0.01 0.01 45 1021.0
20260905020507 76 202 0.0 1.0 0.00 0.01 0.01 44 1020.9
20260905020109 76 202 0.0 1.0 0.00 0.01 0.01 44 1020.9
20260905015548 77 202 0.0 1.0 0.00 0.01 0.01 44 1020.9
20260905015056 77 202 1.0 1.0 0.00 0.01 0.01 43 1021.0